Location: Newark
(60.5925°N, 45.5911°E)
Time: 00:30:08
(UTC+00:00)

Envisat - Pass Details

Date: 19 September 2019
Orbit: 764 x 766 km, 98.1° (Epoch: 20 October)

Event Time Altitude Azimuth Distance (km) Brightness Sun altitude
Rises 16:44:47 0° 222° (SW) 3,231 6.5 -12.2°
Reaches altitude 10° 16:48:10 10° 246° (WSW) 2,310 6.1 -12.6°
Maximum altitude 16:50:58 15° 280° (W) 2,005 6.3 -12.9°
Drops below altitude 10° 16:53:47 10° 313° (NW) 2,318 6.8 -13.2°
Sets 16:57:12 0° 337° (NNW) 3,250 7.1 -13.6°
